Location: Asheville, NC
(35.6000°N, 82.5500°W)
Time: 13:02:13
(UTC-05:00)

Vanguard 2 Rocket - Pass Details

Date: 07 December 2017
Orbit: 556 x 3326 km, 32.9° (Epoch: 16 January)

Event Time Altitude Azimuth Distance (km) Brightness Sun altitude
Rises 23:22:55 0° 263° (W) 6,472 11.4 -71.8°
Reaches altitude 10° 23:26:46 10° 263° (W) 5,712 11.0 -72.4°
Enters shadow 23:30:14 20° 263° (W) 5,065 10.6 -72.9°
